Regional Weather Roundup
Issued by NWS Raleigh/Durham, NC

Current Version | Previous Version | Text Only | Print | Product List | Glossary On
Versions: 1 2 3 4 5 6 7 8 9 10 11 12 13 14 15 16 17 18 19 20 21 22 23 24 25 26 27
000
ASUS42 KRAH 201510
RWRRAH
NORTH CAROLINA WEATHER ROUNDUP
NATIONAL WEATHER SERVICE RALEIGH NC
1100 AM EDT SUN APR 20 2014

NOTE: "FAIR" INDICATES FEW OR NO CLOUDS BELOW 12,000 FEET WITH NO
SIGNIFICANT WEATHER AND/OR OBSTRUCTIONS TO VISIBILITY.

NCZ001-053-055-056-065-067-201600-
WESTERN NORTH CAROLINA

CITY           SKY/WX    TMP DP  RH WIND       PRES   REMARKS
ASHEVILLE      SUNNY     58  34  40 NE9G18    30.30S
JEFFERSON      SUNNY     52  31  44 N7        30.31S
MORGANTON      SUNNY     60  38  43 N10G16    30.35S
HICKORY        SUNNY     59  35  40 NE12G20   30.30R
RUTHERFORDTON  SUNNY     61  38  43 NE7       30.31R
MOUNT AIRY     SUNNY     62  30  29 NE14G26   30.31S
BOONE          SUNNY     54  32  44 E5        30.31S
$$

NCZ021-022-025-041-071-084-088-201600-
CENTRAL NORTH CAROLINA

CITY           SKY/WX    TMP DP  RH WIND       PRES   REMARKS
CHARLOTTE      SUNNY     61  35  37 NE15G28   30.27R
GREENSBORO     PTSUNNY   60  30  32 NE21G32   30.29R
WINSTON-SALEM  SUNNY     60  30  32 NE16G23   30.31S
RALEIGH-DURHAM PTSUNNY   60  39  45 NE15G24   30.27R
FORT BRAGG     CLOUDY    57  38  50 N8        30.21R
FAYETTEVILLE   CLOUDY    58  38  47 NE17G25   30.19R
CHAPEL HILL    PTSUNNY   58  34  40 N15G26    30.28R
BURLINGTON     MOSUNNY   60  32  34 NE16G25   30.28S
LAURINBURG     CLOUDY    58  37  45 NE18G26   30.20R
$$

NCZ011-015-027-028-043-044-047-080-103-201600-
NORTHEASTERN NORTH CAROLINA

CITY           SKY/WX    TMP DP  RH WIND       PRES   REMARKS
ROCKY MT-WILSO CLOUDY    60  44  55 N18G26    30.24R
GREENVILLE     CLOUDY    57  46  67 NE14      30.22R
WASHINGTON     CLOUDY    55  51  85 N16G23    30.18F
ELIZABETH CITY LGT RAIN  53  48  83 N23G31    30.23R
MANTEO         LGT RAIN  52  50  92 NE18G26   30.17R
CAPE HATTERAS  LGT RAIN  57  57 100 NE16G26   30.07S FOG
$$

NCZ078-087-090-091-093-098-101-201600-
SOUTHEASTERN NORTH CAROLINA

CITY           SKY/WX    TMP DP  RH WIND       PRES   REMARKS
LUMBERTON      CLOUDY    57  40  52 N13G28    30.17R
GOLDSBORO      CLOUDY    57  45  63 N10G23    30.18R
KINSTON        CLOUDY    57  46  67 N15G21    30.19R
KENANSVILLE    CLOUDY    54  44  67 N14G20    30.18R
NEW BERN       LGT RAIN  55  54  94 N17G29    30.14S FOG
CHERRY POINT   DRIZZLE   56  52  86 N18G35    30.11S FOG
BEAUFORT       LGT RAIN  56  54  93 N22G33    30.06F FOG
JACKSONVILLE   LGT RAIN  54  54 100 N20G26    30.11S
WILMINGTON     RAIN      54  51  90 N20G32    30.09S FOG
$$




USA.gov is the U.S. government's official web portal to all federal, state and local government web resources and services.